[[{"header":{"parameterUnit":"m.s-1","parameterCategory":2,"la1":30.2991,"la2":30.254,"lo1":-89.0895,"lo2":-89.0444,"dy":0.0017,"dx":0.0017,"nx":28,"ny":28,"refTime":"2023-11-01T09:00:00:Z","depth":"0","parameterNumber":2,"parameterNumberName":"U-component_of_CURRENTS"},"data":[0,0,0,0,0,0,0,0,0,0,0,0,0,0,0,0,0,0,0,0,0,0,0,0,0,0,0,0,0,0,0,0,0,0,0,0,0,0,0,0,0,0,0,0,0,0,0,0,0,0,0,0,0,0,0,0,0,0,-0.3061,-0.3062,0,-0.3072,-0.3072,-0.3072,-0.3004,-0.3002,-0.3,-0.2999,-0.298,-0.2981,-0.2982,0,0,0,0,0,0,0,0,0,0,0,0,0,-0.3081,-0.308,-0.3061,-0.3062,-0.3062,-0.3072,-0.3072,-0.3072,-0.3004,-0.3002,-0.3,-0.2998,-0.298,-0.2981,-0.2982,0,0,0,0,0,0,0,0,0,0,0,0,0,-0.3078,-0.308,-0.3061,-0.3031,-0.3029,-0.3072,-0.3072,-0.3072,-0.3005,-0.3002,-0.2999,-0.2997,-0.2979,-0.2981,-0.2982,-0.3043,0,0,-0.2987,-0.2988,0,0,0,0,0,0,0,0,-0.3078,-0.3076,-0.3035,-0.3034,-0.3031,-0.3036,-0.3072,-0.3062,-0.3005,-0.3011,-0.2999,-0.2996,-0.3,-0.2999,-0.3004,-0.3042,-0.3041,-0.2987,-0.2988,-0.2989,-0.2989,0,0,0,0,0,0,0,-0.3078,-0.3076,-0.3063,-0.3036,-0.3033,-0.3052,-0.3047,-0.307,-0.3017,-0.301,-0.3006,-0.3012,-0.2997,-0.3002,-0.3003,-0.3041,-0.2987,-0.2989,-0.299,-0.299,-0.3067,-0.3068,0,0,0,0,0,0,-0.3079,-0.3076,-0.3063,-0.3063,-0.3052,-0.3053,-0.3048,-0.3035,-0.3017,-0.3013,-0.3015,-0.3009,-0.3001,-0.3001,-0.3002,-0.3019,-0.2989,-0.299,-0.2991,-0.3066,-0.3068,-0.3069,0,0,0,0,0,0,-0.3079,-0.3077,-0.3062,-0.3073,-0.3073,-0.3055,-0.3041,-0.3037,-0.303,-0.3021,-0.3015,-0.3011,-0.2999,-0.3,-0.3014,-0.302,-0.2991,-0.2993,-0.3065,-0.3067,-0.3068,-0.3088,0,0,0,0,0,0,-0.308,-0.3077,-0.307,-0.3073,-0.3072,-0.3084,-0.3044,-0.3039,-0.304,-0.3032,-0.3018,-0.3013,-0.2997,-0.3011,-0.3015,-0.3021,-0.2994,-0.3064,-0.3066,-0.3068,-0.3086,-0.309,-0.3094,0,0,0,0,0,-0.308,-0.308,-0.3069,-0.3068,-0.3062,-0.3086,-0.3087,-0.3065,-0.3042,-0.3048,-0.3034,-0.3013,-0.3026,-0.3014,-0.3018,-0.3025,-0.3063,-0.3065,-0.3068,-0.3085,-0.309,-0.3094,0,0,0,0,0,0,-0.3088,-0.3074,-0.3062,-0.3056,-0.307,-0.3075,-0.3079,-0.3073,-0.3069,-0.3056,-0.3037,-0.3034,-0.3044,-0.3044,-0.3031,-0.3054,-0.3039,-0.3042,-0.305,-0.3055,-0.3059,-0.3049,-0.2995,0,0,0,0,0,-0.309,-0.3075,-0.3082,-0.3079,-0.3085,-0.3086,-0.3093,-0.3084,-0.3084,-0.3078,-0.307,-0.3063,-0.3064,-0.3065,-0.3069,-0.3096,-0.3081,-0.3101,-0.3105,-0.3108,-0.3104,-0.3094,-0.3096,-0.3077,-0.3077,-0.3077,0,0,-0.3097,-0.3084,-0.3079,-0.308,-0.3083,-0.3097,-0.3081,-0.3095,-0.3102,-0.3081,-0.3084,-0.308,-0.3075,-0.3089,-0.3094,-0.3085,-0.3108,-0.3111,-0.3113,-0.3108,-0.3097,-0.3098,-0.3099,-0.3079,-0.3078,-0.3078,0,0,-0.3096,-0.3089,-0.3075,-0.3092,-0.3101,-0.311,-0.3116,-0.3126,-0.312,-0.3142,-0.3117,-0.3118,-0.3133,-0.3121,-0.3119,-0.3156,-0.3129,-0.3158,-0.317,-0.316,-0.3161,-0.3161,-0.3148,-0.3147,-0.316,-0.316,-0.316,0,-0.3098,-0.3079,-0.3083,-0.3085,-0.3098,-0.3114,-0.3123,-0.3137,-0.3151,-0.3154,-0.3141,-0.3151,-0.3144,-0.3151,-0.3152,-0.3162,-0.315,-0.3149,-0.3163,-0.3163,-0.3163,-0.315,-0.3148,-0.3161,-0.3161,-0.3161,-0.3161,0,-0.3087,-0.3085,-0.3088,-0.3083,-0.3108,-0.3123,-0.315,-0.3169,-0.3171,-0.3178,-0.319,-0.3187,-0.3184,-0.3188,-0.3179,-0.3182,-0.3172,-0.3167,-0.3146,-0.3166,-0.3151,-0.3149,-0.3163,-0.3162,-0.3162,-0.3162,0,0,-0.3042,-0.3068,-0.3066,-0.307,-0.3107,-0.3123,-0.3156,-0.3181,-0.3193,-0.3209,-0.3216,-0.322,-0.3214,-0.3212,-0.3205,-0.3198,-0.3189,-0.3183,-0.3181,-0.316,-0.3163,-0.3089,-0.308,-0.3183,-0.3183,-0.3183,-0.3152,0,-0.302,-0.3013,-0.3044,-0.3064,-0.3066,-0.3118,-0.3147,-0.3181,-0.3206,-0.3226,-0.323,-0.3236,-0.3226,-0.3221,-0.3215,-0.3199,-0.3185,-0.3197,-0.3155,-0.3154,-0.3077,-0.3076,-0.2947,-0.2903,-0.315,-0.315,-0.315,0,-0.2967,-0.2981,-0.2981,-0.3037,-0.3046,-0.3067,-0.3115,-0.3152,-0.3201,-0.3224,-0.3241,-0.3247,-0.3247,-0.3232,-0.321,-0.3217,-0.3187,-0.3172,-0.3171,-0.309,-0.3076,-0.2924,-0.289,-0.2865,-0.3147,-0.3147,-0.3147,0,-0.288,-0.2926,-0.2919,-0.294,-0.3014,-0.3028,-0.3068,-0.3128,-0.3162,-0.3214,-0.3237,-0.3249,-0.3246,-0.3225,-0.3197,-0.3201,-0.3165,-0.3167,-0.3072,-0.3067,-0.2942,-0.2926,-0.2867,-0.3136,-0.3136,-0.3136,-0.3136,0,-0.2811,-0.2809,-0.2875,-0.2878,-0.2897,-0.2969,-0.2994,-0.305,-0.312,-0.3148,-0.3215,-0.3227,-0.3242,-0.3229,-0.32,-0.3126,-0.3163,-0.3065,-0.3049,-0.2947,-0.2932,-0.2892,-0.2922,-0.3135,-0.3135,-0.3135,-0.3135,0,-0.2688,-0.2732,-0.2739,-0.282,-0.2845,-0.285,-0.2944,-0.2965,-0.3057,-0.3096,-0.3111,-0.3199,-0.3187,-0.319,-0.3157,-0.3113,-0.3004,-0.3024,-0.2901,-0.2871,-0.2748,-0.2785,-0.2706,-0.263,-0.2911,-0.2909,-0.2908,0,-0.2605,-0.2593,-0.2673,-0.2681,-0.2709,-0.2748,-0.2773,-0.2899,-0.2936,-0.3062,-0.3066,-0.3103,-0.3098,-0.3052,-0.2984,-0.2915,-0.2913,-0.2761,-0.2739,-0.2712,-0.2743,-0.2761,-0.2705,-0.2589,-0.2585,-0.2581,-0.2578,0,-0.2464,-0.2493,-0.2512,-0.254,-0.2563,-0.261,-0.2663,-0.2691,-0.2833,-0.2885,-0.2946,-0.296,-0.2943,-0.2834,-0.2764,-0.2704,-0.2686,-0.2686,-0.2684,-0.2501,-0.249,-0.2418,-0.2654,-0.2548,-0.2551,-0.2553,-0.2555,-0.2556,-0.2339,-0.2326,-0.2356,-0.2367,-0.2408,-0.2438,-0.2412,-0.2502,-0.2551,-0.2592,-0.2725,-0.2717,-0.27,-0.2586,-0.2533,-0.2391,-0.2458,-0.2315,-0.2368,-0.2394,-0.2295,-0.2461,-0.2324,-0.2325,-0.2327,-0.2328,-0.2329,0,-0.2169,-0.2178,-0.2182,-0.2195,-0.2173,-0.2261,-0.2305,-0.226,-0.2251,-0.2358,-0.2382,-0.2415,-0.2315,-0.2317,-0.221,-0.211,-0.2055,-0.2061,-0.2059,-0.202,-0.2171,-0.2129,-0.1909,-0.1909,-0.1909,-0.1909,-0.1909,-0.1909,-0.208,-0.2027,-0.2041,-0.1949,-0.1955,-0.188,-0.1866,-0.1848,-0.1889,-0.1893,-0.1956,-0.2067,-0.2103,-0.2239,-0.2104,-0.1995,-0.1949,-0.1872,-0.1918,-0.2044,-0.2072,-0.2099,-0.2064,-0.1835,-0.1835,-0.1666,-0.1665,-0.1664]},{"header":{"parameterUnit":"m.s-1","parameterCategory":2,"la1":30.2991,"la2":30.254,"lo1":-89.0895,"lo2":-89.0444,"dy":0.0017,"dx":0.0017,"nx":28,"ny":28,"refTime":"2023-11-01T09:00:00:Z","depth":"0","parameterNumber":3,"parameterNumberName":"V-component_of_CURRENTS"},"data":[0,0,0,0,0,0,0,0,0,0,0,0,0,0,0,0,0,0,0,0,0,0,0,0,0,0,0,0,0,0,0,0,0,0,0,0,0,0,0,0,0,0,0,0,0,0,0,0,0,0,0,0,0,0,0,0,0,0,-0.0333,-0.0332,0,-0.0229,-0.0228,-0.0227,-0.0162,-0.0162,-0.0161,-0.0161,0.0007,0.0011,0.0015,0,0,0,0,0,0,0,0,0,0,0,0,0,-0.046,-0.0458,-0.0333,-0.0331,-0.033,-0.0229,-0.0228,-0.0226,-0.0162,-0.0162,-0.0161,-0.0161,0.0005,0.001,0.0015,0,0,0,0,0,0,0,0,0,0,0,0,0,-0.0385,-0.0457,-0.0333,-0.0286,-0.028,-0.0229,-0.0228,-0.0226,-0.0162,-0.0162,-0.0161,-0.016,0.0004,0.001,0.0016,0.0042,0,0,0.0034,0.0037,0,0,0,0,0,0,0,0,-0.039,-0.0381,-0.0294,-0.0289,-0.0283,-0.0208,-0.0211,-0.0133,-0.0162,-0.0207,-0.0161,-0.016,-0.0059,-0.0048,-0.0031,0.005,0.0057,0.0035,0.0039,0.0041,0.0043,0,0,0,0,0,0,0,-0.0395,-0.0385,-0.0292,-0.0293,-0.0286,-0.0264,-0.0253,-0.0196,-0.0137,-0.0203,-0.0198,-0.0187,-0.0056,-0.0037,-0.0026,0.006,0.0035,0.004,0.0044,0.0046,0.0189,0.0189,0,0,0,0,0,0,-0.0408,-0.039,-0.0295,-0.0289,-0.0336,-0.0263,-0.025,-0.0233,-0.0139,-0.0124,-0.0187,-0.0184,-0.0048,-0.0034,-0.002,0.0024,0.0041,0.0047,0.0051,0.0189,0.0189,0.0189,0,0,0,0,0,0,-0.0411,-0.0401,-0.0299,-0.0337,-0.0323,-0.0261,-0.0242,-0.0231,-0.021,-0.0127,-0.0111,-0.0178,-0.0047,-0.0029,0.0027,0.0031,0.005,0.0055,0.0188,0.0189,0.0189,0.0108,0,0,0,0,0,0,-0.0415,-0.0402,-0.0399,-0.0338,-0.0321,-0.0275,-0.0242,-0.0229,-0.0204,-0.0199,-0.0114,-0.0098,-0.0045,0.0018,0.0033,0.004,0.006,0.0188,0.0189,0.0189,0.0111,0.0106,0.0101,0,0,0,0,0,-0.042,-0.0418,-0.0399,-0.0388,-0.0316,-0.0276,-0.0265,-0.022,-0.0205,-0.0199,-0.0143,-0.01,0.003,0.0023,0.0041,0.0049,0.0188,0.0188,0.0189,0.0113,0.0107,0.0102,0,0,0,0,0,0,-0.0477,-0.0409,-0.0388,-0.0366,-0.0327,-0.0265,-0.0257,-0.0226,-0.0179,-0.0173,-0.0098,-0.0078,-0.003,0.0021,0.0011,0.0091,0.0116,0.012,0.0052,0.0047,0.0042,0.0027,0.0065,0,0,0,0,0,-0.0487,-0.0464,-0.0404,-0.039,-0.0372,-0.0317,-0.0297,-0.0266,-0.0214,-0.0193,-0.0134,-0.007,-0.0015,0.0023,0.0076,0.0124,0.0172,0.0141,0.0136,0.0132,0.0132,0.0196,0.0197,0.0189,0.0189,0.0189,0,0,-0.051,-0.0467,-0.0457,-0.04,-0.0367,-0.0348,-0.0304,-0.0278,-0.0259,-0.0181,-0.0142,-0.0088,-0.0008,0.004,0.0067,0.0085,0.0159,0.0132,0.0128,0.013,0.0196,0.0197,0.0198,0.019,0.0189,0.0189,0,0,-0.054,-0.0503,-0.0494,-0.0463,-0.0414,-0.0377,-0.0373,-0.0313,-0.0284,-0.024,-0.0183,-0.0128,-0.0042,0.0016,0.0057,0.006,0.0125,0.0077,0.0051,0.0112,0.0114,0.0115,0.0172,0.018,0.0082,0.0082,0.0082,0,-0.0573,-0.0545,-0.0489,-0.0474,-0.0457,-0.0395,-0.0392,-0.0352,-0.0282,-0.0258,-0.0238,-0.0115,-0.0052,0.0017,0.0017,0.005,0.0092,0.0063,0.0105,0.0108,0.0111,0.0169,0.0178,0.0078,0.0079,0.0079,0.008,0,-0.0591,-0.0574,-0.057,-0.0525,-0.0501,-0.049,-0.043,-0.0404,-0.0363,-0.0316,-0.025,-0.0165,-0.009,-0.0062,-0.0018,0.0036,0.006,0.0082,0.0114,0.0106,0.0169,0.018,0.0073,0.0074,0.0075,0.0076,0,0,-0.0659,-0.0595,-0.0596,-0.0589,-0.0529,-0.0515,-0.0484,-0.0435,-0.0417,-0.0343,-0.0308,-0.0209,-0.0163,-0.0114,-0.0049,0.001,0.0065,0.0049,0.0054,0.0096,0.0199,0.025,0.0268,0.0091,0.0092,0.0094,0.0233,0,-0.0696,-0.0684,-0.0636,-0.064,-0.0636,-0.0575,-0.0553,-0.0501,-0.0445,-0.0395,-0.0296,-0.0239,-0.0182,-0.0149,-0.0081,0.003,0.0091,0.0025,0.021,0.0215,0.0254,0.0281,0.0314,0.0444,0.0244,0.0245,0.0247,0,-0.0729,-0.072,-0.0722,-0.0697,-0.069,-0.068,-0.064,-0.0611,-0.0521,-0.0477,-0.0396,-0.0317,-0.0209,-0.0171,0.0019,-0.0026,0.0075,0.016,0.0168,0.0253,0.0287,0.0423,0.0472,0.064,0.0264,0.0263,0.0262,0,-0.08,-0.0782,-0.0786,-0.0777,-0.0735,-0.073,-0.0711,-0.0639,-0.062,-0.0527,-0.0497,-0.0359,-0.029,-0.0143,0.0043,0.003,0.0249,0.0257,0.0401,0.0405,0.049,0.05,0.0718,0.0381,0.038,0.038,0.038,0,-0.0848,-0.0857,-0.0824,-0.083,-0.0857,-0.0801,-0.0807,-0.0765,-0.0704,-0.0679,-0.0547,-0.0487,-0.0282,-0.0128,0.0032,0.0262,0.0249,0.0407,0.0451,0.0463,0.0468,0.0665,0.0729,0.0385,0.0384,0.0383,0.0382,0,-0.0906,-0.0878,-0.0895,-0.088,-0.0883,-0.0903,-0.0889,-0.0889,-0.0817,-0.0779,-0.0753,-0.0578,-0.0363,-0.0143,0.011,0.0251,0.0576,0.0539,0.0539,0.058,0.0859,0.0915,0.1172,0.1277,0.072,0.0722,0.0724,0,-0.0922,-0.0933,-0.0949,-0.0976,-0.097,-0.0992,-0.1007,-0.0958,-0.095,-0.0825,-0.0808,-0.0601,-0.043,-0.0026,0.0261,0.0567,0.0689,0.0759,0.0744,0.0897,0.0993,0.1024,0.1095,0.0826,0.0829,0.0831,0.0833,0,-0.0967,-0.0968,-0.0986,-0.1051,-0.1082,-0.1118,-0.1129,-0.114,-0.1066,-0.1002,-0.0864,-0.0713,-0.0311,0.0072,0.0464,0.0637,0.0892,0.081,0.0981,0.1111,0.115,0.1262,0.0705,0.0851,0.0849,0.0848,0.0847,0.0846,-0.0997,-0.1033,-0.1062,-0.112,-0.117,-0.1221,-0.1239,-0.1226,-0.1195,-0.1068,-0.0912,-0.0646,-0.0092,0.0484,0.07,0.1129,0.1072,0.1236,0.1297,0.1318,0.1413,0.0893,0.1076,0.1075,0.1075,0.1075,0.1074,0,-0.103,-0.1069,-0.1132,-0.1198,-0.1261,-0.1269,-0.1299,-0.1283,-0.1231,-0.107,-0.0889,-0.0293,0.0262,0.0762,0.1387,0.1607,0.165,0.1699,0.1758,0.1812,0.1374,0.1372,0.1613,0.1613,0.1613,0.1613,0.1613,0.1612,-0.1047,-0.1108,-0.1143,-0.1252,-0.13,-0.1349,-0.1357,-0.1313,-0.1197,-0.0892,-0.0571,-0.0296,0.0423,0.1463,0.2031,0.2063,0.2253,0.2215,0.2329,0.2025,0.1986,0.1948,0.1965,0.2326,0.2327,0.2745,0.2749,0.2753]}],[{"header":{"parameterUnit":"m.s-1","parameterCategory":2,"la1":30.2991,"la2":30.254,"lo1":-89.0895,"lo2":-89.0444,"dy":0.0017,"dx":0.0017,"nx":28,"ny":28,"refTime":"2023-11-01T09:00:00:Z","depth":"2","parameterNumber":2,"parameterNumberName":"U-component_of_CURRENTS"},"data":[0,0,0,0,0,0,0,0,0,0,0,0,0,0,0,0,0,0,0,0,0,0,0,0,0,0,0,0,0,0,0,0,0,0,0,0,0,0,0,0,0,0,0,0,0,0,0,0,0,0,0,0,0,0,0,0,0,0,-0.2685,-0.2685,0,-0.2715,-0.2715,-0.2715,-0.2666,-0.2665,-0.2663,-0.2662,-0.2643,-0.2644,-0.2644,0,0,0,0,0,0,0,0,0,0,0,0,0,-0.2632,-0.2633,-0.2684,-0.2685,-0.2686,-0.2715,-0.2715,-0.2715,-0.2666,-0.2665,-0.2663,-0.2662,-0.2643,-0.2644,-0.2644,0,0,0,0,0,0,0,0,0,0,0,0,0,-0.2654,-0.2633,-0.2684,-0.2668,-0.2667,-0.2715,-0.2715,-0.2715,-0.2667,-0.2665,-0.2663,-0.2661,-0.2642,-0.2644,-0.2645,-0.2691,0,0,-0.2648,-0.2648,0,0,0,0,0,0,0,0,-0.2653,-0.2655,-0.267,-0.2669,-0.2668,-0.2688,-0.269,-0.2706,-0.2667,-0.2663,-0.2662,-0.266,-0.2658,-0.2657,-0.2662,-0.269,-0.2689,-0.2648,-0.2649,-0.2649,-0.2649,0,0,0,0,0,0,0,-0.2651,-0.2654,-0.2692,-0.2671,-0.267,-0.2676,-0.2676,-0.2693,-0.2667,-0.2663,-0.266,-0.2671,-0.2656,-0.2662,-0.2662,-0.2689,-0.2648,-0.2649,-0.265,-0.265,-0.2718,-0.2719,0,0,0,0,0,0,-0.2655,-0.2653,-0.2692,-0.2694,-0.266,-0.2679,-0.2679,-0.2681,-0.2668,-0.2665,-0.2673,-0.2669,-0.2661,-0.266,-0.2661,-0.2684,-0.2649,-0.265,-0.2651,-0.2716,-0.2718,-0.2719,0,0,0,0,0,0,-0.2654,-0.2658,-0.269,-0.2677,-0.2682,-0.2682,-0.2684,-0.2682,-0.2684,-0.2676,-0.2671,-0.2676,-0.2659,-0.2659,-0.2674,-0.2684,-0.2651,-0.2652,-0.2715,-0.2717,-0.2718,-0.275,0,0,0,0,0,0,-0.2652,-0.2657,-0.2662,-0.2678,-0.2683,-0.2719,-0.2687,-0.2684,-0.2696,-0.2691,-0.2679,-0.2675,-0.2658,-0.2672,-0.2675,-0.2685,-0.2652,-0.2714,-0.2716,-0.2718,-0.2748,-0.2753,-0.2757,0,0,0,0,0,-0.265,-0.2665,-0.2662,-0.2667,-0.2689,-0.2721,-0.2724,-0.2714,-0.2698,-0.2707,-0.2696,-0.2675,-0.2687,-0.2675,-0.2677,-0.2687,-0.2713,-0.2715,-0.2718,-0.2746,-0.2752,-0.2757,0,0,0,0,0,0,-0.2645,-0.2663,-0.2659,-0.2677,-0.2699,-0.2714,-0.2725,-0.2724,-0.2725,-0.2717,-0.2697,-0.2694,-0.2708,-0.2703,-0.269,-0.2714,-0.2694,-0.2698,-0.2715,-0.2721,-0.2725,-0.2717,-0.2653,0,0,0,0,0,-0.2649,-0.2658,-0.2682,-0.2696,-0.2709,-0.272,-0.2733,-0.2731,-0.2738,-0.2735,-0.2729,-0.2724,-0.2725,-0.2726,-0.2728,-0.2753,-0.2737,-0.276,-0.2764,-0.2768,-0.2765,-0.2757,-0.276,-0.2728,-0.2727,-0.2727,0,0,-0.2647,-0.2663,-0.2664,-0.2696,-0.2708,-0.2731,-0.2721,-0.2746,-0.2757,-0.2737,-0.2746,-0.2744,-0.2736,-0.2751,-0.2757,-0.2746,-0.2772,-0.2772,-0.2775,-0.2769,-0.276,-0.2762,-0.2765,-0.2729,-0.2729,-0.2729,0,0,-0.2654,-0.2668,-0.2677,-0.2701,-0.2734,-0.2746,-0.2756,-0.2779,-0.2779,-0.2804,-0.2782,-0.2788,-0.28,-0.2789,-0.2786,-0.2826,-0.2798,-0.2829,-0.2845,-0.2838,-0.284,-0.2842,-0.2831,-0.2832,-0.283,-0.283,-0.283,0,-0.2658,-0.2664,-0.2687,-0.2712,-0.273,-0.2753,-0.2771,-0.2789,-0.2811,-0.2817,-0.2808,-0.2821,-0.2814,-0.2823,-0.2828,-0.2834,-0.2824,-0.2821,-0.2842,-0.2844,-0.2845,-0.2833,-0.2833,-0.2832,-0.2832,-0.2832,-0.2832,0,-0.2663,-0.268,-0.2694,-0.2722,-0.2751,-0.2775,-0.2807,-0.2829,-0.2837,-0.2848,-0.2866,-0.2864,-0.2864,-0.2869,-0.2858,-0.2868,-0.2857,-0.2849,-0.2823,-0.285,-0.2837,-0.2836,-0.2835,-0.2834,-0.2834,-0.2833,0,0,-0.2634,-0.2686,-0.2688,-0.2702,-0.2756,-0.2777,-0.2815,-0.2846,-0.2863,-0.2885,-0.2898,-0.2906,-0.2903,-0.29,-0.2894,-0.289,-0.289,-0.2873,-0.2872,-0.2855,-0.2871,-0.2795,-0.2787,-0.2884,-0.2884,-0.2884,-0.286,0,-0.2625,-0.2658,-0.2693,-0.2723,-0.2737,-0.2786,-0.2819,-0.2856,-0.2882,-0.2907,-0.2914,-0.2925,-0.2917,-0.2916,-0.2914,-0.2898,-0.2889,-0.2897,-0.2855,-0.2854,-0.2776,-0.2783,-0.2576,-0.2532,-0.286,-0.2859,-0.2859,0,-0.2593,-0.2627,-0.2651,-0.271,-0.2724,-0.2749,-0.2799,-0.2836,-0.2888,-0.2913,-0.2934,-0.2943,-0.2949,-0.2934,-0.2918,-0.2924,-0.2897,-0.2883,-0.2881,-0.2795,-0.2776,-0.2559,-0.2518,-0.2858,-0.2858,-0.2858,-0.2858,0,-0.2518,-0.2584,-0.2598,-0.262,-0.2701,-0.2719,-0.2758,-0.282,-0.2853,-0.2908,-0.2933,-0.2952,-0.2954,-0.2937,-0.2911,-0.2914,-0.2886,-0.2884,-0.2791,-0.2785,-0.2591,-0.2568,-0.286,-0.286,-0.286,-0.286,-0.286,0,-0.2473,-0.2482,-0.2561,-0.2572,-0.2598,-0.2669,-0.27,-0.2754,-0.2823,-0.2851,-0.2918,-0.2932,-0.2953,-0.2944,-0.2917,-0.2847,-0.2887,-0.2787,-0.277,-0.2598,-0.2577,-0.2846,-0.2845,-0.2859,-0.2859,-0.286,-0.286,0,-0.2371,-0.2427,-0.2446,-0.2531,-0.2556,-0.2566,-0.2657,-0.2678,-0.2769,-0.2806,-0.2824,-0.291,-0.2901,-0.2909,-0.2881,-0.2838,-0.2791,-0.2752,-0.2551,-0.251,-0.2696,-0.2697,-0.2648,-0.2645,-0.2643,-0.2641,-0.2639,0,-0.2314,-0.2312,-0.2392,-0.2401,-0.2433,-0.2474,-0.2502,-0.262,-0.2652,-0.2774,-0.2776,-0.2818,-0.2807,-0.2766,-0.2699,-0.2634,-0.2714,-0.2411,-0.2375,-0.2683,-0.2673,-0.2678,-0.2682,-0.2136,-0.213,-0.2125,-0.2121,0,-0.22,-0.2227,-0.225,-0.2279,-0.2303,-0.2346,-0.2397,-0.2422,-0.2552,-0.2598,-0.2647,-0.2655,-0.264,-0.2488,-0.2426,-0.2359,-0.241,-0.2314,-0.267,-0.2229,-0.22,-0.219,-0.2211,-0.208,-0.2084,-0.2087,-0.2089,-0.2091,-0.2093,-0.2082,-0.2113,-0.2125,-0.2164,-0.2185,-0.2158,-0.2234,-0.227,-0.2296,-0.242,-0.2371,-0.2375,-0.2173,-0.2073,-0.1996,-0.2156,-0.2058,-0.2072,-0.2091,-0.2043,-0.2012,-0.1848,-0.185,-0.1853,-0.1855,-0.1857,0,-0.1944,-0.1953,-0.1958,-0.1968,-0.1944,-0.2027,-0.2058,-0.2005,-0.1979,-0.2048,-0.2057,-0.1884,-0.1797,-0.181,-0.1629,-0.1601,-0.1583,-0.1535,-0.1508,-0.155,-0.1587,-0.1514,-0.1178,-0.1176,-0.1174,-0.1172,0,0,-0.1866,-0.1818,-0.1828,-0.174,-0.1745,-0.1668,-0.1648,-0.1609,-0.1618,-0.1552,-0.1537,-0.1682,-0.1751,-0.1466,-0.1399,-0.1258,-0.1388,-0.1195,-0.1737,-0.1745,-0.178,-0.1882,-0.1816,0,0,0,0,0]},{"header":{"parameterUnit":"m.s-1","parameterCategory":2,"la1":30.2991,"la2":30.254,"lo1":-89.0895,"lo2":-89.0444,"dy":0.0017,"dx":0.0017,"nx":28,"ny":28,"refTime":"2023-11-01T09:00:00:Z","depth":"2","parameterNumber":3,"parameterNumberName":"V-component_of_CURRENTS"},"data":[0,0,0,0,0,0,0,0,0,0,0,0,0,0,0,0,0,0,0,0,0,0,0,0,0,0,0,0,0,0,0,0,0,0,0,0,0,0,0,0,0,0,0,0,0,0,0,0,0,0,0,0,0,0,0,0,0,0,-0.0259,-0.0258,0,-0.0164,-0.0163,-0.0162,-0.0102,-0.0102,-0.0102,-0.0101,0.0051,0.0055,0.0059,0,0,0,0,0,0,0,0,0,0,0,0,0,-0.0357,-0.0356,-0.0259,-0.0258,-0.0256,-0.0164,-0.0163,-0.0162,-0.0102,-0.0102,-0.0102,-0.0101,0.005,0.0054,0.0059,0,0,0,0,0,0,0,0,0,0,0,0,0,-0.0294,-0.0355,-0.0259,-0.0216,-0.0211,-0.0165,-0.0163,-0.0161,-0.0102,-0.0102,-0.0101,-0.0101,0.0049,0.0054,0.006,0.0084,0,0,0.0077,0.0079,0,0,0,0,0,0,0,0,-0.0297,-0.029,-0.0223,-0.0219,-0.0213,-0.0144,-0.0142,-0.0076,-0.0103,-0.0144,-0.0101,-0.0101,-0.0009,0.0001,0.0017,0.0091,0.0098,0.0077,0.0081,0.0083,0.0085,0,0,0,0,0,0,0,-0.0302,-0.0294,-0.0221,-0.0222,-0.0216,-0.019,-0.0181,-0.0129,-0.0079,-0.014,-0.0135,-0.0125,-0.0006,0.0011,0.0021,0.01,0.0077,0.0082,0.0086,0.0088,0.0216,0.0216,0,0,0,0,0,0,-0.0315,-0.0298,-0.0224,-0.0218,-0.0255,-0.0189,-0.0179,-0.0167,-0.0081,-0.0068,-0.0126,-0.0123,0.0002,0.0015,0.0027,0.0067,0.0083,0.0088,0.0092,0.0216,0.0216,0.0216,0,0,0,0,0,0,-0.0318,-0.031,-0.0228,-0.0256,-0.0244,-0.0188,-0.0175,-0.0165,-0.0147,-0.0071,-0.0056,-0.0118,0.0002,0.0019,0.007,0.0074,0.0091,0.0096,0.0216,0.0216,0.0216,0.0145,0,0,0,0,0,0,-0.0321,-0.0311,-0.0311,-0.0257,-0.0243,-0.0207,-0.0176,-0.0164,-0.0142,-0.0137,-0.0059,-0.0045,0.0004,0.0061,0.0075,0.0082,0.01,0.0216,0.0216,0.0216,0.0147,0.0142,0.0138,0,0,0,0,0,-0.0325,-0.0327,-0.0312,-0.0303,-0.0243,-0.0208,-0.0198,-0.0157,-0.0142,-0.0138,-0.0086,-0.0047,0.0072,0.0065,0.0082,0.009,0.0216,0.0216,0.0216,0.0149,0.0143,0.0138,0,0,0,0,0,0,-0.0374,-0.032,-0.0302,-0.0289,-0.0254,-0.0198,-0.0191,-0.0163,-0.012,-0.0115,-0.0045,-0.0027,0.0017,0.0063,0.0054,0.0127,0.015,0.0154,0.0093,0.0089,0.0084,0.007,0.0105,0,0,0,0,0,-0.0385,-0.037,-0.0319,-0.031,-0.0296,-0.0246,-0.0228,-0.02,-0.0153,-0.0134,-0.008,-0.0021,0.003,0.0065,0.0113,0.0157,0.0202,0.0173,0.0169,0.0165,0.0165,0.0228,0.023,0.0217,0.0217,0.0217,0,0,-0.0404,-0.0371,-0.0364,-0.032,-0.0291,-0.0274,-0.0234,-0.0212,-0.0194,-0.0123,-0.0087,-0.0038,0.0036,0.008,0.0105,0.0121,0.0191,0.0165,0.0161,0.0164,0.0229,0.023,0.0231,0.0217,0.0217,0.0217,0,0,-0.0432,-0.0405,-0.0402,-0.0376,-0.0335,-0.0302,-0.0299,-0.0246,-0.0219,-0.0179,-0.0126,-0.0075,0.0003,0.0058,0.0097,0.01,0.0159,0.0114,0.0092,0.0152,0.0154,0.0156,0.0207,0.0214,0.012,0.0119,0.0119,0,-0.0461,-0.0443,-0.0398,-0.0389,-0.0374,-0.0319,-0.0317,-0.0281,-0.0218,-0.0195,-0.0178,-0.0064,-0.0005,0.0061,0.0061,0.0091,0.0129,0.0103,0.0146,0.0149,0.0152,0.0205,0.0213,0.0116,0.0116,0.0117,0.0117,0,-0.0482,-0.0471,-0.047,-0.0437,-0.0416,-0.0407,-0.0353,-0.0329,-0.0293,-0.0249,-0.0187,-0.0108,-0.0038,-0.0012,0.0029,0.0082,0.0102,0.0125,0.0155,0.0149,0.0205,0.0215,0.0111,0.0112,0.0113,0.0114,0,0,-0.0545,-0.0495,-0.0497,-0.0492,-0.0443,-0.0431,-0.0402,-0.0357,-0.034,-0.0272,-0.0238,-0.0146,-0.0103,-0.0058,0.0003,0.0062,0.0115,0.0097,0.0102,0.014,0.0243,0.0278,0.0293,0.0142,0.0144,0.0145,0.027,0,-0.058,-0.058,-0.0538,-0.0543,-0.0542,-0.0485,-0.0466,-0.0417,-0.0366,-0.0319,-0.0225,-0.0172,-0.0119,-0.0089,-0.0022,0.0082,0.0141,0.0079,0.0251,0.0256,0.0281,0.0306,0.0266,0.0376,0.0281,0.0283,0.0284,0,-0.0613,-0.061,-0.0619,-0.0596,-0.0591,-0.0583,-0.0546,-0.0519,-0.0433,-0.0393,-0.0316,-0.0242,-0.0139,-0.0104,0.0075,0.0032,0.0127,0.0208,0.0215,0.0281,0.031,0.037,0.04,0.0302,0.0301,0.0299,0.0298,0,-0.0679,-0.0667,-0.0677,-0.0669,-0.0633,-0.0629,-0.0611,-0.0545,-0.0527,-0.0438,-0.0411,-0.028,-0.0216,-0.0076,0.0095,0.0086,0.0289,0.03,0.0423,0.0426,0.0445,0.0448,0.042,0.042,0.042,0.0419,0.0419,0,-0.0726,-0.0737,-0.0712,-0.072,-0.0745,-0.0695,-0.0701,-0.0662,-0.0605,-0.0582,-0.0458,-0.0405,-0.0207,-0.0064,0.0085,0.0293,0.0288,0.0428,0.0467,0.0419,0.0417,0.0394,0.0389,0.0424,0.0423,0.0422,0.0421,0,-0.0782,-0.0762,-0.078,-0.0767,-0.0771,-0.079,-0.0779,-0.0779,-0.0713,-0.0678,-0.0654,-0.0493,-0.0298,-0.0089,0.0149,0.0279,0.0473,0.0543,0.047,0.0498,0.0569,0.0559,0.0695,0.0697,0.0699,0.0701,0.0702,0,-0.0803,-0.0815,-0.0831,-0.0856,-0.0853,-0.0874,-0.0889,-0.0844,-0.0836,-0.0727,-0.0711,-0.0524,-0.037,-0.0001,0.0259,0.054,0.0535,0.0653,0.0635,0.0576,0.0601,0.0587,0.0575,0.063,0.0631,0.0632,0.0632,0,-0.0849,-0.085,-0.0868,-0.0929,-0.0958,-0.0991,-0.1003,-0.1013,-0.0945,-0.0889,-0.0771,-0.0637,-0.028,0.0034,0.039,0.054,0.0608,0.0675,0.0652,0.0562,0.0525,0.0545,0.0534,0.0637,0.0637,0.0637,0.0636,0.0636,-0.088,-0.0913,-0.0941,-0.0994,-0.1041,-0.1087,-0.1103,-0.1091,-0.1065,-0.0952,-0.0821,-0.0591,-0.0285,0.0226,0.0483,0.0703,0.0696,0.0749,0.0743,0.0738,0.0703,0.0671,0.0805,0.0805,0.0805,0.0806,0.0806,0,-0.0915,-0.0949,-0.1007,-0.1067,-0.1126,-0.1134,-0.116,-0.1144,-0.1098,-0.0959,-0.0804,-0.0465,-0.0101,0.0209,0.0578,0.0803,0.0769,0.0821,0.0741,0.0734,0.0729,0.069,0.0791,0.0791,0.0792,0.0793,0,0,-0.0933,-0.0989,-0.1018,-0.1118,-0.1164,-0.1211,-0.1217,-0.1172,-0.1071,-0.0919,-0.0745,-0.0485,-0.0097,0.0165,0.0448,0.0637,0.062,0.0638,0.0626,0.0492,0.0484,0.0662,0.0593,0,0,0,0,0]}],[{"header":{"parameterUnit":"m.s-1","parameterCategory":2,"la1":30.2991,"la2":30.254,"lo1":-89.0895,"lo2":-89.0444,"dy":0.0017,"dx":0.0017,"nx":28,"ny":28,"refTime":"2023-11-01T09:00:00:Z","depth":"4","parameterNumber":2,"parameterNumberName":"U-component_of_CURRENTS"},"data":[0,0,0,0,0,0,0,0,0,0,0,0,0,0,0,0,0,0,0,0,0,0,0,0,0,0,0,0,0,0,0,0,0,0,0,0,0,0,0,0,0,0,0,0,0,0,0,0,0,0,0,0,0,0,0,0,0,0,-0.1881,-0.1882,0,-0.1952,-0.1952,-0.1953,-0.1977,-0.1977,-0.1977,-0.1977,-0.2023,-0.2024,-0.2025,0,0,0,0,0,0,0,0,0,0,0,0,0,-0.1677,-0.1681,-0.1881,-0.1882,-0.1884,-0.1952,-0.1952,-0.1953,-0.1977,-0.1977,-0.1977,-0.1977,-0.2022,-0.2024,-0.2025,0,0,0,0,0,0,0,0,0,0,0,0,0,-0.1755,-0.1682,-0.1881,-0.1906,-0.191,-0.1951,-0.1952,-0.1953,-0.1977,-0.1977,-0.1977,-0.1977,-0.2022,-0.2023,-0.2025,-0.2035,0,0,-0.2031,-0.2031,0,0,0,0,0,0,0,0,-0.1751,-0.1763,-0.1901,-0.1905,-0.1908,-0.1959,-0.1897,-0.198,-0.1977,-0.1948,-0.1977,-0.1977,-0.2001,-0.2005,-0.2013,-0.2037,-0.2039,-0.2031,-0.2032,-0.2033,-0.2033,0,0,0,0,0,0,0,-0.1746,-0.1759,-0.1905,-0.1903,-0.1907,-0.1884,-0.1895,-0.1912,-0.197,-0.195,-0.1953,-0.1966,-0.2002,-0.2011,-0.2014,-0.204,-0.2031,-0.2032,-0.2033,-0.2034,-0.2134,-0.2135,0,0,0,0,0,0,-0.175,-0.1755,-0.1903,-0.1908,-0.1832,-0.1888,-0.1901,-0.194,-0.197,-0.1976,-0.1966,-0.1967,-0.2008,-0.2012,-0.2016,-0.2087,-0.2033,-0.2034,-0.2035,-0.2132,-0.2134,-0.2136,0,0,0,0,0,0,-0.1745,-0.1763,-0.1901,-0.1833,-0.185,-0.1892,-0.1935,-0.1941,-0.1981,-0.1984,-0.1988,-0.2004,-0.2008,-0.2014,-0.2059,-0.2087,-0.2035,-0.2037,-0.2131,-0.2133,-0.2135,-0.2192,0,0,0,0,0,0,-0.174,-0.1762,-0.1804,-0.1835,-0.1854,-0.1945,-0.1936,-0.1942,-0.1989,-0.1991,-0.2017,-0.2019,-0.2009,-0.2056,-0.206,-0.2088,-0.2038,-0.2128,-0.2132,-0.2134,-0.2188,-0.2196,-0.2202,0,0,0,0,0,-0.1733,-0.1785,-0.1806,-0.1824,-0.1908,-0.1946,-0.1954,-0.1979,-0.1991,-0.2014,-0.2034,-0.202,-0.2078,-0.2059,-0.2064,-0.2092,-0.2127,-0.2131,-0.2134,-0.2184,-0.2194,-0.2202,0,0,0,0,0,0,-0.1714,-0.1793,-0.1817,-0.1892,-0.1927,-0.1952,-0.1986,-0.2001,-0.2036,-0.2049,-0.2045,-0.2049,-0.2096,-0.2092,-0.2072,-0.2131,-0.2099,-0.2103,-0.2135,-0.2144,-0.2152,-0.2142,-0.2039,0,0,0,0,0,-0.1732,-0.1799,-0.1849,-0.191,-0.1935,-0.1967,-0.1993,-0.2012,-0.2041,-0.2058,-0.2076,-0.2095,-0.211,-0.2127,-0.214,-0.2179,-0.216,-0.22,-0.2207,-0.2213,-0.221,-0.2209,-0.2215,-0.2148,-0.2148,-0.2148,0,0,-0.1737,-0.1795,-0.1829,-0.1911,-0.1944,-0.198,-0.1983,-0.2036,-0.2064,-0.2057,-0.2114,-0.2126,-0.2127,-0.2165,-0.2185,-0.2169,-0.2226,-0.2218,-0.2223,-0.2216,-0.2213,-0.222,-0.2225,-0.215,-0.215,-0.2149,0,0,-0.1764,-0.1838,-0.1893,-0.1929,-0.1995,-0.2015,-0.2038,-0.2086,-0.2113,-0.2164,-0.2162,-0.2194,-0.223,-0.2229,-0.2232,-0.2291,-0.2264,-0.2303,-0.2334,-0.2335,-0.234,-0.2344,-0.2335,-0.2338,-0.2307,-0.2307,-0.2307,0,-0.1761,-0.1847,-0.1908,-0.1958,-0.1989,-0.2034,-0.207,-0.2105,-0.216,-0.2182,-0.2192,-0.2246,-0.2253,-0.228,-0.23,-0.2306,-0.2299,-0.2299,-0.2342,-0.2346,-0.2349,-0.2339,-0.2342,-0.231,-0.231,-0.231,-0.2309,0,-0.1817,-0.1884,-0.1917,-0.2,-0.2039,-0.2082,-0.2131,-0.2178,-0.2219,-0.2243,-0.2299,-0.2314,-0.2338,-0.2352,-0.2345,-0.2377,-0.2363,-0.235,-0.2315,-0.2359,-0.2346,-0.2348,-0.2315,-0.2314,-0.2313,-0.2312,0,0,-0.1791,-0.1928,-0.194,-0.1977,-0.2065,-0.2094,-0.2159,-0.2214,-0.2253,-0.231,-0.235,-0.2388,-0.2402,-0.2405,-0.2408,-0.2414,-0.2436,-0.2399,-0.2398,-0.2382,-0.2435,-0.2277,-0.2262,-0.2434,-0.2434,-0.2435,-0.2419,0,-0.1806,-0.19,-0.1969,-0.2035,-0.2074,-0.2137,-0.2188,-0.2246,-0.2297,-0.235,-0.2379,-0.2419,-0.2419,-0.2439,-0.2448,-0.244,-0.2442,-0.2441,-0.2402,-0.24,-0.2247,-0.2259,-0.2436,-0.2419,-0.242,-0.242,-0.242,0,-0.1823,-0.1886,-0.1961,-0.2052,-0.2078,-0.2124,-0.2207,-0.2258,-0.2337,-0.238,-0.2428,-0.2452,-0.2484,-0.2474,-0.248,-0.2483,-0.2464,-0.2452,-0.2451,-0.2279,-0.2243,-0.2366,-0.2422,-0.2422,-0.2422,-0.2421,-0.2421,0,-0.1757,-0.187,-0.1933,-0.1964,-0.2077,-0.2121,-0.2178,-0.2264,-0.2309,-0.2396,-0.2432,-0.2479,-0.2501,-0.2497,-0.2483,-0.2488,-0.2472,-0.247,-0.2309,-0.2298,-0.2422,-0.2418,-0.2462,-0.2462,-0.2462,-0.2462,-0.2462,0,-0.1729,-0.1777,-0.1912,-0.1939,-0.2002,-0.2091,-0.2158,-0.2226,-0.2314,-0.2348,-0.2438,-0.2454,-0.251,-0.2508,-0.249,-0.2391,-0.2475,-0.2303,-0.2276,-0.2448,-0.2447,-0.2423,-0.2419,-0.2461,-0.2461,-0.2461,-0.2462,0,-0.1644,-0.1742,-0.1806,-0.1931,-0.1974,-0.2013,-0.2136,-0.217,-0.2278,-0.2323,-0.235,-0.2442,-0.2433,-0.2459,-0.2446,-0.2373,-0.2313,-0.2257,-0.2436,-0.2423,-0.2142,-0.2141,-0.2072,-0.2066,-0.2061,-0.2057,-0.2053,0,-0.1612,-0.164,-0.1777,-0.1809,-0.1871,-0.1951,-0.1998,-0.213,-0.2159,-0.2281,-0.2276,-0.2327,-0.2361,-0.2218,-0.2268,-0.221,-0.2185,-0.2146,-0.2143,-0.2117,-0.21,-0.2107,-0.2113,-0.2045,-0.2044,-0.2043,-0.2041,0,-0.1518,-0.1582,-0.1633,-0.1706,-0.1766,-0.1825,-0.19,-0.191,-0.2038,-0.216,-0.2135,-0.2124,-0.2111,-0.2099,-0.2066,-0.2028,-0.2168,-0.2094,-0.2105,-0.2101,-0.2084,-0.2073,-0.2085,-0.2024,-0.2027,-0.2028,-0.2029,0,-0.1439,-0.145,-0.1525,-0.157,-0.1647,-0.1663,-0.1727,-0.1754,-0.1807,-0.1946,-0.1927,-0.1989,-0.2078,-0.2002,-0.197,-0.192,-0.1894,-0.1836,-0.186,-0.1879,-0.1822,-0.1774,-0.1581,0,0,0,0,0,-0.1345,-0.1344,-0.1378,-0.1421,-0.149,-0.1532,-0.1642,-0.1709,-0.1836,-0.1762,-0.184,-0.1817,-0.1779,-0.182,-0.1725,-0.1882,-0.1902,-0.1763,-0.1849,-0.1928,-0.1948,-0.1898,0,0,0,0,0,0,-0.1283,-0.1312,-0.1327,-0.1283,-0.1281,-0.1339,-0.1402,-0.1491,-0.1466,-0.1601,-0.1589,-0.1694,-0.1684,-0.1791,-0.1679,-0.1689,-0.1703,-0.1813,-0.1808,-0.1917,-0.1935,-0.1951,-0.1907,0,0,0,0,0]},{"header":{"parameterUnit":"m.s-1","parameterCategory":2,"la1":30.2991,"la2":30.254,"lo1":-89.0895,"lo2":-89.0444,"dy":0.0017,"dx":0.0017,"nx":28,"ny":28,"refTime":"2023-11-01T09:00:00:Z","depth":"4","parameterNumber":3,"parameterNumberName":"V-component_of_CURRENTS"},"data":[0,0,0,0,0,0,0,0,0,0,0,0,0,0,0,0,0,0,0,0,0,0,0,0,0,0,0,0,0,0,0,0,0,0,0,0,0,0,0,0,0,0,0,0,0,0,0,0,0,0,0,0,0,0,0,0,0,0,-0.0179,-0.0179,0,-0.0114,-0.0114,-0.0113,-0.0071,-0.007,-0.007,-0.007,0.0046,0.0049,0.0052,0,0,0,0,0,0,0,0,0,0,0,0,0,-0.022,-0.0219,-0.0179,-0.0178,-0.0178,-0.0114,-0.0114,-0.0113,-0.0071,-0.007,-0.007,-0.007,0.0045,0.0049,0.0052,0,0,0,0,0,0,0,0,0,0,0,0,0,-0.0183,-0.0219,-0.0179,-0.0149,-0.0146,-0.0115,-0.0113,-0.0112,-0.0071,-0.007,-0.007,-0.007,0.0044,0.0048,0.0053,0.0072,0,0,0.0066,0.0068,0,0,0,0,0,0,0,0,-0.0185,-0.0182,-0.0155,-0.0151,-0.0148,-0.01,-0.0085,-0.0048,-0.0071,-0.0099,-0.007,-0.0069,0.0002,0.0009,0.002,0.0078,0.0083,0.0066,0.0069,0.0071,0.0072,0,0,0,0,0,0,0,-0.0188,-0.0184,-0.0153,-0.0154,-0.0149,-0.0123,-0.0118,-0.0078,-0.005,-0.0097,-0.0093,-0.0087,0.0004,0.0016,0.0024,0.0084,0.0066,0.007,0.0073,0.0074,0.0173,0.0173,0,0,0,0,0,0,-0.0199,-0.0187,-0.0155,-0.0151,-0.0166,-0.0123,-0.0117,-0.0116,-0.0052,-0.0042,-0.0087,-0.0085,0.0009,0.0019,0.0028,0.0059,0.0071,0.0075,0.0077,0.0173,0.0173,0.0173,0,0,0,0,0,0,-0.02,-0.0197,-0.0158,-0.0167,-0.016,-0.0123,-0.0122,-0.0115,-0.0103,-0.0045,-0.0035,-0.0083,0.0009,0.0022,0.006,0.0064,0.0077,0.0081,0.0173,0.0173,0.0173,0.0119,0,0,0,0,0,0,-0.0202,-0.0198,-0.0205,-0.0168,-0.016,-0.0145,-0.0122,-0.0114,-0.01,-0.0096,-0.0038,-0.0027,0.0011,0.0053,0.0064,0.007,0.0084,0.0173,0.0173,0.0173,0.0121,0.0117,0.0114,0,0,0,0,0,-0.0204,-0.0213,-0.0206,-0.0202,-0.017,-0.0146,-0.014,-0.0111,-0.01,-0.0099,-0.0059,-0.0029,0.0061,0.0056,0.0069,0.0077,0.0173,0.0173,0.0173,0.0122,0.0118,0.0115,0,0,0,0,0,0,-0.0234,-0.0209,-0.02,-0.0201,-0.0179,-0.0139,-0.0137,-0.0116,-0.0085,-0.0082,-0.0028,-0.0014,0.0018,0.0054,0.0047,0.0105,0.0122,0.0125,0.0079,0.0076,0.0073,0.0062,0.0088,0,0,0,0,0,-0.0245,-0.0247,-0.0215,-0.0218,-0.021,-0.0175,-0.0164,-0.0144,-0.011,-0.0097,-0.0056,-0.0011,0.0029,0.0056,0.0093,0.0127,0.0164,0.0141,0.0138,0.0135,0.0135,0.0192,0.0194,0.0173,0.0173,0.0173,0,0,-0.0259,-0.0245,-0.0246,-0.0225,-0.0207,-0.0198,-0.0168,-0.0154,-0.0143,-0.0088,-0.0063,-0.0024,0.0033,0.0068,0.0087,0.01,0.0159,0.0135,0.0132,0.0134,0.0192,0.0195,0.0196,0.0173,0.0173,0.0173,0,0,-0.0283,-0.0275,-0.0282,-0.0266,-0.0243,-0.022,-0.0219,-0.0183,-0.0164,-0.0136,-0.0094,-0.0053,0.0005,0.0051,0.0082,0.0085,0.0133,0.0095,0.008,0.0135,0.0137,0.014,0.0181,0.0187,0.0101,0.0101,0.0101,0,-0.0299,-0.0304,-0.028,-0.028,-0.0271,-0.0234,-0.0236,-0.021,-0.0165,-0.0148,-0.0137,-0.0047,-0.0,0.0056,0.0056,0.0079,0.0111,0.0088,0.013,0.0134,0.0137,0.0179,0.0187,0.0098,0.0098,0.0099,0.0099,0,-0.0325,-0.0327,-0.0331,-0.0319,-0.0307,-0.0304,-0.0266,-0.0251,-0.0226,-0.0192,-0.0144,-0.0081,-0.0025,-0.0003,0.0029,0.0078,0.0092,0.0112,0.0138,0.0136,0.018,0.0189,0.0094,0.0095,0.0096,0.0097,0,0,-0.0364,-0.0351,-0.0355,-0.0357,-0.0329,-0.0323,-0.0305,-0.0274,-0.0263,-0.0211,-0.0184,-0.0109,-0.0075,-0.0038,0.0013,0.0066,0.0116,0.0095,0.0099,0.013,0.0228,0.0206,0.0215,0.0142,0.0143,0.0145,0.0246,0,-0.0392,-0.041,-0.0389,-0.0401,-0.0406,-0.0368,-0.0356,-0.0322,-0.0285,-0.025,-0.0172,-0.0131,-0.0087,-0.0063,-0.0002,0.0086,0.0139,0.0086,0.023,0.0235,0.0212,0.0225,0.0149,0.0253,0.0255,0.0257,0.0258,0,-0.0423,-0.0431,-0.0451,-0.0445,-0.0444,-0.0445,-0.0423,-0.0405,-0.0341,-0.0311,-0.0248,-0.0189,-0.01,-0.007,0.0085,0.0047,0.013,0.0199,0.0205,0.0211,0.023,0.026,0.0275,0.0274,0.0273,0.0272,0.0271,0,-0.0467,-0.0474,-0.0495,-0.0493,-0.0478,-0.0482,-0.0475,-0.0429,-0.0418,-0.0349,-0.033,-0.0218,-0.0165,-0.0043,0.0098,0.0094,0.0264,0.028,0.034,0.034,0.0352,0.0349,0.0387,0.0387,0.0387,0.0387,0.0386,0,-0.05,-0.0518,-0.0524,-0.0534,-0.0564,-0.0535,-0.0549,-0.0523,-0.0484,-0.0467,-0.0369,-0.0329,-0.0156,-0.0038,0.009,0.024,0.0263,0.034,0.0368,0.0326,0.0318,0.0359,0.0354,0.039,0.039,0.0389,0.0388,0,-0.0533,-0.0537,-0.0564,-0.0573,-0.0584,-0.0606,-0.0616,-0.062,-0.0576,-0.055,-0.0532,-0.0404,-0.0249,-0.0075,0.013,0.0219,0.0371,0.0419,0.0353,0.0375,0.0411,0.0402,0.0495,0.0495,0.0496,0.0496,0.0496,0,-0.0549,-0.0566,-0.0605,-0.0635,-0.0643,-0.0675,-0.0695,-0.0672,-0.0668,-0.0593,-0.0578,-0.0437,-0.0332,-0.0055,0.0118,0.0359,0.039,0.0458,0.0443,0.0406,0.0424,0.0415,0.0407,0.0496,0.0496,0.0496,0.0496,0,-0.0574,-0.0591,-0.0615,-0.0682,-0.0721,-0.0758,-0.0781,-0.0784,-0.074,-0.0709,-0.06,-0.0451,-0.0278,-0.0063,0.0123,0.0295,0.0409,0.046,0.0461,0.0448,0.0408,0.0424,0.0415,0.0496,0.0496,0.0496,0.0496,0,-0.0593,-0.0622,-0.0663,-0.0715,-0.0776,-0.0814,-0.0822,-0.0799,-0.0784,-0.0688,-0.0657,-0.0458,-0.0341,-0.0097,0.0075,0.024,0.0279,0.0322,0.0331,0.0332,0.0251,0.0174,0.0218,0,0,0,0,0,-0.0604,-0.0637,-0.0693,-0.0749,-0.0812,-0.084,-0.0864,-0.0856,-0.0816,-0.0744,-0.0694,-0.0526,-0.0261,-0.0146,0.0018,0.0065,0.0294,0.0258,0.0344,0.0499,0.0498,0.0428,0,0,0,0,0,0,-0.0612,-0.0665,-0.0691,-0.0766,-0.0808,-0.0868,-0.0881,-0.0855,-0.08,-0.0739,-0.0592,-0.0506,-0.0244,-0.0351,0.0016,0.0065,0.0136,0.0388,0.0391,0.0499,0.0499,0.0498,0.0425,0,0,0,0,0]}]]